Hourly Weather Bolshie Leznevichi

Today, 23 June, Wednesday

Time Temperature Precipitation Wind Pressure Humidity
00:00 +21°C° 0 mm 3 mps 736 mmHg 83%
01:00 +20°C° 0 mm 3 mps 736 mmHg 85%
02:00 +20°C° 0 mm 3 mps 736 mmHg 86%
03:00 +19°C° 0 mm 3 mps 736 mmHg 86%
04:00 +19°C° 0 mm 2 mps 736 mmHg 86%
05:00 +19°C° 0 mm 2 mps 736 mmHg 86%
06:00 +21°C° 0 mm 3 mps 737 mmHg 81%
07:00 +24°C° 0 mm 3 mps 737 mmHg 77%
08:00 +25°C° 0 mm 3 mps 738 mmHg 73%
09:00 +27°C° 0 mm 3 mps 738 mmHg 69%
10:00 +28°C° 0 mm 3 mps 738 mmHg 64%
11:00 +29°C° 0 mm 3 mps 739 mmHg 60%
12:00 +30°C° 0 mm 3 mps 739 mmHg 59%
13:00 +30°C° 0 mm 3 mps 739 mmHg 57%
14:00 +31°C° 0 mm 2 mps 739 mmHg 56%
15:00 +31°C° 0 mm 2 mps 739 mmHg 57%
16:00 +31°C° 0 mm 2 mps 739 mmHg 59%
17:00 +31°C° 0 mm 2 mps 739 mmHg 60%
18:00 +30°C° 0.2 mm 2 mps 739 mmHg 66%
19:00 +28°C° 0.2 mm 2 mps 738 mmHg 73%
20:00 +27°C° 0.2 mm 2 mps 738 mmHg 79%
21:00 +26°C° 0.4 mm 2 mps 738 mmHg 81%
22:00 +25°C° 0.4 mm 1 mps 739 mmHg 84%
23:00 +23°C° 0.4 mm 1 mps 739 mmHg 86%

Tomorrow, 24 June, Thursday

Time Temperature Precipitation Wind Pressure Humidity
00:00 +23°C° 0.7 mm 1 mps 739 mmHg 87%
01:00 +22°C° 0.7 mm 1 mps 739 mmHg 88%
02:00 +22°C° 0.7 mm 1 mps 739 mmHg 90%
03:00 +22°C° 0.4 mm 1 mps 739 mmHg 90%
04:00 +22°C° 0.4 mm 1 mps 739 mmHg 90%
05:00 +22°C° 0.4 mm 1 mps 738 mmHg 90%
06:00 +23°C° 0 mm 1 mps 739 mmHg 87%
07:00 +24°C° 0 mm 2 mps 739 mmHg 84%
08:00 +26°C° 0 mm 2 mps 739 mmHg 81%
09:00 +27°C° 0 mm 3 mps 739 mmHg 75%
10:00 +29°C° 0 mm 3 mps 739 mmHg 70%
11:00 +30°C° 0 mm 4 mps 739 mmHg 64%
12:00 +30°C° 0 mm 3 mps 739 mmHg 60%
13:00 +31°C° 0 mm 3 mps 739 mmHg 57%
14:00 +31°C° 0 mm 3 mps 738 mmHg 53%
15:00 +32°C° 0 mm 4 mps 738 mmHg 56%
16:00 +32°C° 0 mm 4 mps 737 mmHg 58%
17:00 +32°C° 0 mm 4 mps 736 mmHg 60%
18:00 +29°C° 0.2 mm 3 mps 736 mmHg 67%
19:00 +27°C° 0.2 mm 3 mps 736 mmHg 73%
20:00 +25°C° 0.2 mm 2 mps 736 mmHg 80%
21:00 +24°C° 1.1 mm 2 mps 736 mmHg 83%
22:00 +22°C° 1.1 mm 3 mps 736 mmHg 86%
23:00 +20°C° 1.1 mm 3 mps 736 mmHg 89%

Day after tomorrow, 25 June, Friday

Time Temperature Precipitation Wind Pressure Humidity
00:00 +20°C° 0.5 mm 2 mps 736 mmHg 91%
01:00 +20°C° 0.5 mm 2 mps 736 mmHg 92%
02:00 +20°C° 0.5 mm 1 mps 736 mmHg 93%
03:00 +19°C° 0 mm 2 mps 735 mmHg 93%
04:00 +20°C° 0 mm 2 mps 735 mmHg 94%
05:00 +20°C° 0 mm 2 mps 735 mmHg 94%
06:00 +21°C° 0 mm 2 mps 735 mmHg 90%
07:00 +24°C° 0 mm 2 mps 735 mmHg 87%
08:00 +25°C° 0 mm 3 mps 736 mmHg 84%
09:00 +26°C° 0.2 mm 2 mps 736 mmHg 80%
10:00 +27°C° 0.2 mm 2 mps 736 mmHg 76%
11:00 +28°C° 0.2 mm 2 mps 736 mmHg 72%
12:00 +28°C° 1.3 mm 3 mps 736 mmHg 73%
13:00 +28°C° 1.3 mm 3 mps 736 mmHg 74%
14:00 +28°C° 1.3 mm 3 mps 736 mmHg 75%
15:00 +28°C° 1 mm 3 mps 735 mmHg 76%
16:00 +27°C° 1 mm 2 mps 735 mmHg 77%
17:00 +27°C° 1 mm 2 mps 734 mmHg 78%
18:00 +25°C° 0.6 mm 2 mps 734 mmHg 83%
19:00 +24°C° 0.6 mm 3 mps 734 mmHg 87%
20:00 +21°C° 0.6 mm 3 mps 734 mmHg 91%
21:00 +20°C° 0.6 mm 4 mps 734 mmHg 91%
22:00 +19°C° 0.6 mm 5 mps 734 mmHg 91%
23:00 +17°C° 0.6 mm 5 mps 734 mmHg 90%

26 June, Saturday

Time Temperature Precipitation Wind Pressure Humidity
00:00 +18°C° 0.1 mm 4 mps 734 mmHg 93%
01:00 +18°C° 0.1 mm 4 mps 734 mmHg 95%
02:00 +19°C° 0.1 mm 3 mps 734 mmHg 97%
03:00 +19°C° 0.3 mm 3 mps 734 mmHg 97%
04:00 +19°C° 0.3 mm 3 mps 734 mmHg 97%
05:00 +18°C° 0.3 mm 4 mps 735 mmHg 97%
06:00 +19°C° 0 mm 4 mps 735 mmHg 95%
07:00 +19°C° 0 mm 4 mps 735 mmHg 92%
08:00 +20°C° 0 mm 4 mps 735 mmHg 90%
09:00 +21°C° 0 mm 4 mps 735 mmHg 83%
10:00 +22°C° 0 mm 4 mps 736 mmHg 76%
11:00 +23°C° 0 mm 4 mps 736 mmHg 70%
12:00 +23°C° 0 mm 4 mps 736 mmHg 70%
13:00 +23°C° 0 mm 4 mps 736 mmHg 70%
14:00 +23°C° 0 mm 5 mps 736 mmHg 70%
15:00 +22°C° 0 mm 4 mps 736 mmHg 71%
16:00 +22°C° 0 mm 4 mps 736 mmHg 72%
17:00 +22°C° 0 mm 3 mps 736 mmHg 74%
18:00 +21°C° 0 mm 3 mps 736 mmHg 79%
19:00 +20°C° 0 mm 3 mps 736 mmHg 83%
20:00 +19°C° 0 mm 3 mps 736 mmHg 88%
21:00 +18°C° 0 mm 3 mps 736 mmHg 91%
22:00 +17°C° 0 mm 3 mps 736 mmHg 93%
23:00 +17°C° 0 mm 3 mps 736 mmHg 95%

27 June, Sunday

Time Temperature Precipitation Wind Pressure Humidity
00:00 +16°C° 0 mm 2 mps 737 mmHg 96%
01:00 +16°C° 0 mm 2 mps 737 mmHg 96%
02:00 +15°C° 0 mm 2 mps 737 mmHg 97%
03:00 +15°C° 0 mm 2 mps 737 mmHg 96%
04:00 +15°C° 0 mm 2 mps 737 mmHg 96%
05:00 +15°C° 0 mm 2 mps 737 mmHg 96%
06:00 +16°C° 0 mm 2 mps 737 mmHg 90%
07:00 +17°C° 0 mm 3 mps 737 mmHg 84%
08:00 +18°C° 0 mm 3 mps 738 mmHg 78%
09:00 +19°C° 0 mm 3 mps 738 mmHg 74%
10:00 +20°C° 0 mm 4 mps 738 mmHg 70%
11:00 +21°C° 0 mm 4 mps 738 mmHg 66%
12:00 +21°C° 0 mm 4 mps 738 mmHg 66%
13:00 +21°C° 0 mm 4 mps 738 mmHg 66%
14:00 +22°C° 0 mm 3 mps 738 mmHg 66%
15:00 +22°C° 0 mm 3 mps 738 mmHg 66%
16:00 +22°C° 0 mm 3 mps 738 mmHg 67%
17:00 +22°C° 0 mm 3 mps 738 mmHg 67%
18:00 +21°C° 0 mm 3 mps 738 mmHg 72%
19:00 +20°C° 0 mm 3 mps 738 mmHg 77%
20:00 +19°C° 0 mm 3 mps 738 mmHg 82%
21:00 +18°C° 0 mm 3 mps 738 mmHg 85%
22:00 +17°C° 0 mm 2 mps 738 mmHg 88%
23:00 +16°C° 0 mm 2 mps 738 mmHg 91%

28 June, Monday

Time Temperature Precipitation Wind Pressure Humidity
00:00 +15°C° 0 mm 2 mps 738 mmHg 92%
01:00 +15°C° 0 mm 2 mps 738 mmHg 93%
02:00 +15°C° 0 mm 2 mps 738 mmHg 93%
03:00 +15°C° 0 mm 2 mps 738 mmHg 93%
04:00 +14°C° 0 mm 2 mps 738 mmHg 93%
05:00 +14°C° 0 mm 2 mps 738 mmHg 93%
06:00 +16°C° 0 mm 2 mps 738 mmHg 86%
07:00 +18°C° 0 mm 2 mps 738 mmHg 80%
08:00 +19°C° 0 mm 2 mps 739 mmHg 74%
09:00 +21°C° 0 mm 2 mps 739 mmHg 69%
10:00 +22°C° 0 mm 3 mps 739 mmHg 65%
11:00 +24°C° 0 mm 3 mps 739 mmHg 61%
12:00 +24°C° 0.1 mm 3 mps 739 mmHg 59%
13:00 +25°C° 0.1 mm 3 mps 738 mmHg 58%
14:00 +25°C° 0.1 mm 3 mps 738 mmHg 56%
15:00 +25°C° 0 mm 3 mps 738 mmHg 59%
16:00 +25°C° 0 mm 3 mps 738 mmHg 62%
17:00 +25°C° 0 mm 3 mps 738 mmHg 64%
18:00 +23°C° 0.1 mm 2 mps 738 mmHg 69%
19:00 +21°C° 0.1 mm 2 mps 738 mmHg 74%
20:00 +20°C° 0.1 mm 2 mps 737 mmHg 79%
21:00 +18°C° 0 mm 2 mps 737 mmHg 82%
22:00 +17°C° 0 mm 2 mps 737 mmHg 86%
23:00 +16°C° 0 mm 2 mps 737 mmHg 89%
Show more